Lebanon, NH

8:07 PM EST on February 22, 2018 (GMT -0500)
Lebanon Municipal

Weather History for KLEB - May, 2013

Change the Weather History Date:

Monday, May 20, 2013

  Actual Average Record
Temperature  
Mean Temperature 64 °F -  
Max Temperature 73 °F 73 °F 96 °F (1989)
Min Temperature 55 °F 46 °F 26 °F (2002)
Degree Days  
Heating Degree Days 1    
Growing Degree Days 14 (Base 50)    
Moisture  
Dew Point 58 °F    
Average Humidity 84    
Maximum Humidity 100    
Minimum Humidity 64    
Precipitation  
Precipitation 0.02 in - - ()
Sea Level Pressure  
Sea Level Pressure 30.00 in    
Wind  
Wind Speed 5 mph (South)    
Max Wind Speed 9 mph    
Max Gust Speed -    
Visibility 8 miles    
Events Rain    
Averages and records for this station are not official NWS values.
T = Trace of Precipitation, MM = Missing Value Source: NWS Daily Summary

Daily Weather History Graph

Daily Weather History Graph

Search for Another Location

Airport or City:

Trip Planner

Search our weather history database for the weather conditions in past years. The results will help you decide how hot, cold, wet, or windy it might be!

Date:

Astronomy

May. 20, 2013 Rise Set
Actual Time 5:19 AM EDT 8:13 PM EDT
Civil Twilight 4:45 AM EDT 8:46 PM EDT
Nautical Twilight 4:02 AM EDT 9:29 PM EDT
Astronomical Twilight 3:12 AM EDT 10:20 PM EDT
Moon 3:08 PM EDT (5/20) 2:22 AM EDT (5/20)
Length of Visible Light 16h 01m
Length of Day
14h 53m
Waxing Gibbous, 75% of the Moon is Illuminated
May 20
Waxing Gibbous
May 25
Full
May 31
Last Quarter
Jun 8
New
Jun 16
First Quarter

Hourly Weather History & Observations

Time (EDT) Temp. Dew Point Humidity Pressure Visibility Wind Dir Wind Speed Gust Speed Precip Events Conditions
12:53 AM 55.9 °F 54.0 °F 93% 30.14 in 10.0 mi South 9.2 mph - N/A   Overcast
1:53 AM 55.9 °F 54.0 °F 93% 30.09 in 10.0 mi South 9.2 mph - 0.00 in Rain Light Rain
2:53 AM 55.9 °F 54.0 °F 93% 30.08 in 10.0 mi South 8.1 mph - 0.00 in   Overcast
3:53 AM 55.9 °F 54.0 °F 93% 30.06 in 10.0 mi South 5.8 mph - N/A   Overcast
4:53 AM 55.9 °F 54.0 °F 93% 30.02 in 10.0 mi South 6.9 mph - N/A   Overcast
5:53 AM 57.0 °F 54.0 °F 89% 30.02 in 10.0 mi South 6.9 mph - N/A   Overcast
6:35 AM 57.2 °F 53.6 °F 88% 30.03 in 10.0 mi South 6.9 mph - N/A   Overcast
7:46 AM 59.0 °F 55.4 °F 88% 30.03 in 10.0 mi Calm Calm - N/A   Overcast
8:00 AM 60.8 °F 55.4 °F 82% 30.03 in 10.0 mi NW 3.5 mph - N/A   Overcast
8:29 AM 62.6 °F 57.2 °F 82% 30.03 in 10.0 mi South 5.8 mph - N/A   Scattered Clouds
8:48 AM 64.4 °F 57.2 °F 77% 30.03 in 10.0 mi Variable 6.9 mph - N/A   Scattered Clouds
8:53 AM 63.0 °F 57.0 °F 81% 30.02 in 10.0 mi SW 3.5 mph - N/A   Scattered Clouds
9:29 AM 66.2 °F 57.2 °F 73% 30.03 in 10.0 mi Variable 4.6 mph - N/A   Mostly Cloudy
10:06 AM 66.2 °F 57.2 °F 73% 30.03 in 10.0 mi WSW 4.6 mph - N/A   Overcast
10:26 AM 64.4 °F 57.2 °F 77% 30.03 in 4.0 mi Calm Calm - 0.02 in Rain Light Rain
10:36 AM 64.4 °F 59.0 °F 83% 30.03 in 10.0 mi Calm Calm - 0.02 in Rain Light Rain
10:53 AM 66.0 °F 61.0 °F 84% 30.01 in 10.0 mi Calm Calm - 0.02 in   Mostly Cloudy
11:38 AM 68.0 °F 59.0 °F 73% 30.00 in 10.0 mi Variable 3.5 mph - N/A   Overcast
11:53 AM 69.1 °F 59.0 °F 70% 29.98 in 10.0 mi WSW 5.8 mph - N/A   Overcast
12:53 PM 71.1 °F 59.0 °F 66% 29.97 in 10.0 mi Calm Calm - N/A   Overcast
1:53 PM 71.1 °F 60.1 °F 68% 29.97 in 10.0 mi West 3.5 mph - N/A   Overcast
2:53 PM 73.0 °F 60.1 °F 64% 29.96 in 10.0 mi NW 3.5 mph - N/A   Overcast
3:53 PM 72.0 °F 62.1 °F 71% 29.94 in 10.0 mi Calm Calm - N/A   Overcast
4:53 PM 71.1 °F 61.0 °F 70% 29.96 in 10.0 mi NNE 4.6 mph - N/A   Overcast
5:53 PM 71.1 °F 62.1 °F 73% 29.96 in 10.0 mi NE 3.5 mph - N/A   Mostly Cloudy
6:53 PM 69.1 °F 62.1 °F 78% 29.96 in 10.0 mi Calm Calm - N/A   Overcast
7:05 PM 69.8 °F 62.6 °F 78% 29.98 in 10.0 mi NE 3.5 mph - N/A   Overcast
7:53 PM 66.9 °F 62.1 °F 84% 29.96 in 10.0 mi Calm Calm - N/A   Clear
8:53 PM 62.1 °F 60.1 °F 93% 29.97 in 7.0 mi Calm Calm - N/A   Partly Cloudy
9:31 PM 60.8 °F 57.2 °F 88% 29.99 in 2.0 mi SSE 3.5 mph - N/A   Scattered Clouds
9:40 PM 60.8 °F 59.0 °F 94% 29.99 in 5.0 mi Calm Calm - N/A   Partly Cloudy
10:01 PM 60.8 °F 59.0 °F 94% 29.98 in 1.8 mi Calm Calm - N/A   Clear
10:11 PM 60.8 °F 59.0 °F 94% 29.98 in 3.0 mi ENE 3.5 mph - N/A   Clear
10:51 PM 57.2 °F 55.4 °F 94% 29.99 in 2.5 mi Calm Calm - N/A   Scattered Clouds
10:53 PM 57.9 °F 55.9 °F 93% 29.98 in 2.5 mi Calm Calm - N/A   Scattered Clouds
11:03 PM 57.2 °F 55.4 °F 94% 30.00 in 2.5 mi South 3.5 mph - N/A   Mostly Cloudy
11:15 PM 57.2 °F 57.2 °F 100% 29.99 in 4.0 mi South 3.5 mph - N/A   Overcast
11:26 PM 59.0 °F 57.2 °F 94% 29.98 in 1.8 mi ESE 3.5 mph - N/A   Overcast
11:37 PM 60.8 °F 59.0 °F 94% 29.99 in 3.0 mi Calm Calm - N/A   Mostly Cloudy
11:44 PM 60.8 °F 57.2 °F 88% 29.99 in 2.0 mi Calm Calm - N/A   Mostly Cloudy
11:53 PM 57.9 °F 57.0 °F 97% 29.98 in 1.0 mi Calm Calm - N/A   Overcast